Temperature
6 6 6 6 6 6 5 5 5 5 5 5 5 4 4 4 4 4 4 4 4 4 4 4 4 4 4 4 4 4 4 4 3 3 3 3 3 3 3 3 3 3 3
5 5 5 5 5 5 5 5 5 5 4 4 4 4 4 4 4 4 4 4 4 4 4 4 4 4 4 4 3 3 3 3 3 3 3 3 3 3 3 3 3 2 2
5 5 5 5 5 5 5 4 4 4 4 4 4 4 4 4 3 3 3 3 3 3 3 3 3 3 3 3 3 3 3 3 2 2 2 2 2 2 2 2 2 2 2
4 4 4 4 4 4 4 4 4 4 4 3 3 3 3 3 3 3 3 3 3 3 3 3 3 3 3 3 3 2 2 2 2 2 2 2 2 1 1 2 1 1 1
4 4 4 4 4 4 4 4 3 3 3 3 3 3 3 3 2 2 2 2 2 2 2 2 2 2 2 2 2 2 2 1 1 1 1 1 1 1 1 1 1 1 1
3 3 3 3 3 3 3 3 3 3 3 3 3 2 2 2 2 2 2 2 2 2 2 2 2 2 2 1 1 1 1 1 1 1 1 1 1 0 0 0 -0 -0 -1
2 2 2 3 2 2 2 2 2 2 2 2 2 2 2 2 2 1 1 1 1 1 1 1 1 1 1 1 1 1 1 1 0 0 0 0 0 -0 -0 -0 -0 -1 -1
2 2 2 2 2 2 2 2 2 2 2 2 1 1 1 1 1 1 1 1 1 1 1 1 1 1 0 0 0 0 0 0 -0 -0 -0 -0 -1 -1 -1 -1 -1 -1 -1
1 1 1 1 1 1 1 1 1 1 1 1 1 1 1 0 0 0 0 0 0 0 0 0 0 0 0 -0 -0 -0 -1 -1 -1 -1 -1 -1 -1 -1 -2 -2 -2 -2 -2
1 1 0 0 0 0 1 1 1 0 0 0 0 0 0 0 -0 -0 -0 -0 -0 -0 -0 -0 -0 -1 -1 -1 -1 -1 -1 -1 -1 -1 -1 -1 -2 -2 -2 -2 -2 -2 -3
0 0 -0 -0 -0 -0 -0 -0 -0 -0 -0 -0 -0 -0 -1 -1 -1 -1 -1 -1 -1 -1 -1 -1 -1 -1 -1 -1 -2 -2 -2 -2 -2 -2 -2 -2 -2 -2 -2 -3 -3 -3 -3
-0 -0 -0 -0 -1 -1 -1 -1 -1 -1 -1 -1 -1 -1 -1 -1 -1 -1 -1 -1 -1 -1 -1 -1 -1 -2 -2 -2 -2 -2 -2 -2 -2 -2 -2 -2 -3 -3 -3 -3 -3 -3 -4
-1 -1 -1 -1 -1 -1 -1 -1 -1 -2 -2 -2 -2 -2 -2 -2 -2 -2 -2 -2 -2 -2 -2 -2 -2 -2 -2 -2 -2 -3 -3 -3 -3 -3 -3 -3 -3 -3 -3 -4 -4 -4 -4
-1 -1 -1 -1 -1 -2 -2 -2 -2 -2 -2 -2 -2 -2 -3 -3 -3 -3 -3 -3 -3 -2 -2 -3 -3 -3 -3 -3 -3 -3 -3 -3 -3 -3 -4 -4 -4 -4 -4 -4 -4 -4 -4
-2 -2 -2 -2 -2 -2 -2 -2 -2 -3 -3 -3 -3 -3 -3 -3 -3 -3 -3 -3 -3 -3 -3 -3 -3 -3 -3 -3 -4 -4 -4 -4 -4 -4 -4 -4 -4 -4 -4 -5 -5 -5 -5
-2 -2 -2 -3 -3 -3 -3 -3 -3 -3 -3 -3 -3 -3 -3 -3 -3 -3 -4 -4 -4 -4 -4 -4 -4 -4 -4 -4 -4 -4 -4 -4 -4 -4 -4 -5 -5 -5 -5 -5 -5 -6 -6
-3 -3 -3 -3 -3 -3 -3 -4 -4 -4 -4 -4 -4 -4 -4 -4 -4 -4 -4 -4 -4 -4 -4 -4 -4 -4 -4 -5 -5 -4 -4 -5 -5 -5 -5 -5 -5 -5 -6 -6 -6 -6 -6
-3 -3 -4 -4 -4 -4 -4 -4 -4 -4 -4 -4 -4 -4 -4 -4 -4 -4 -4 -4 -4 -4 -4 -4 -4 -5 -5 -5 -5 -5 -5 -5 -5 -5 -5 -5 -5 -6 -6 -6 -6 -6 -6
-4 -4 -4 -4 -4 -4 -4 -4 -4 -4 -4 -4 -4 -4 -5 -5 -5 -4 -5 -5 -4 -4 -5 -5 -5 -5 -5 -5 -5 -5 -5 -5 -5 -5 -5 -6 -6 -6 -6 -7 -7 -7 -7
-4 -4 -4 -4 -4 -5 -5 -5 -5 -5 -5 -5 -5 -5 -5 -5 -5 -5 -5 -5 -5 -5 -5 -5 -5 -5 -5 -5 -5 -6 -6 -6 -6 -6 -6 -6 -6 -6 -7 -7 -7 -7 -7
-5 -4 -5 -5 -5 -5 -5 -5 -5 -5 -5 -5 -5 -5 -5 -5 -5 -5 -5 -5 -5 -5 -5 -5 -5 -5 -5 -6 -6 -6 -6 -6 -6 -6 -6 -6 -6 -7 -7 -7 -7 -7 -7
-5 -5 -5 -5 -5 -5 -5 -5 -5 -5 -5 -5 -5 -5 -6 -6 -6 -6 -6 -6 -6 -6 -6 -6 -6 -6 -6 -6 -6 -6 -6 -6 -6 -6 -6 -7 -7 -7 -7 -7 -7 -7 -8
-5 -5 -5 -5 -6 -6 -6 -6 -6 -6 -5 -5 -5 -6 -6 -6 -6 -6 -6 -6 -6 -6 -6 -6 -6 -6 -6 -6 -6 -6 -6 -6 -6 -7 -7 -7 -7 -7 -7 -7 -7 -8 -8
-6 -6 -6 -6 -6 -6 -6 -6 -6 -6 -6 -6 -6 -6 -6 -6 -6 -6 -6 -6 -6 -6 -6 -6 -6 -6 -6 -6 -6 -6 -6 -6 -7 -7 -7 -7 -7 -7 -7 -7 -8 -8 -8
-6 -6 -6 -6 -6 -6 -6 -6 -6 -6 -6 -6 -6 -6 -6 -6 -6 -6 -6 -6 -6 -6 -6 -6 -6 -6 -6 -6 -6 -6 -6 -6 -7 -7 -7 -7 -7 -7 -7 -8 -8 -8 -8
-6 -6 -6 -7 -6 -6 -6 -6 -6 -6 -6 -6 -6 -6 -6 -6 -6 -6 -6 -6 -6 -7 -7 -7 -7 -6 -6 -6 -6 -6 -7 -7 -7 -7 -7 -7 -7 -7 -8 -8 -8 -8 -8
Wind_Speed
3 3 3 3 3 4 4 4 4 4 3 4 4 3 4 3 3 3 3 3 3 2 2 2 3 2 2 2 2 2 2 2 4 3 2 2 2 2 3 2 3 3 4
3 2 3 3 2 3 4 4 4 4 4 4 4 4 3 4 4 4 4 3 3 3 3 3 3 3 3 3 2 3 3 2 3 4 3 2 2 2 2 2 2 2 3
2 2 2 2 2 3 3 3 3 3 3 3 3 4 4 4 4 4 4 4 4 4 4 4 4 3 4 3 3 3 3 2 2 3 3 2 2 1 1 1 1 2 3
2 2 3 3 3 3 3 2 3 3 3 3 4 4 4 4 4 4 4 4 4 4 4 4 4 4 5 4 4 4 3 2 2 2 2 2 2 1 1 1 2 1 2
2 3 3 3 2 2 2 2 2 2 3 3 3 3 3 3 4 4 4 4 4 4 4 4 5 5 6 5 4 4 3 3 3 3 3 2 2 2 2 2 2 1 2
2 3 3 2 2 2 2 2 2 2 2 2 3 3 3 4 5 6 5 4 4 4 4 4 4 5 5 6 6 6 6 5 5 4 4 4 4 3 3 2 2 1 2
2 2 2 2 2 2 2 2 2 3 2 2 2 3 4 5 7 7 6 4 4 4 5 4 4 4 4 3 4 6 6 8 7 5 5 5 5 4 4 3 3 3 3
2 2 2 2 2 2 2 2 3 2 3 3 3 3 3 5 6 7 6 4 3 4 4 5 4 4 4 3 3 3 3 3 4 4 4 5 4 4 4 4 3 1 1
2 2 2 2 2 2 2 3 2 2 2 2 2 3 3 4 6 6 5 3 3 3 3 4 4 4 6 6 3 3 3 2 3 4 4 4 4 4 3 2 2 1 2
4 3 3 3 3 3 3 2 1 2 2 2 2 2 3 3 5 5 5 3 3 2 2 3 5 5 6 6 4 4 4 3 1 1 1 1 1 3 4 4 4 3 2
3 3 2 2 2 3 2 1 1 1 1 1 1 2 2 3 4 5 5 2 3 2 2 2 2 4 5 5 4 3 4 2 2 2 1 1 1 1 1 2 3 3 3
2 2 2 2 1 1 1 1 1 1 1 1 1 2 2 2 3 4 5 4 3 2 2 2 2 3 3 3 2 3 3 2 1 1 1 1 1 1 2 2 2 1 2
2 2 2 2 1 1 1 1 1 1 2 2 2 2 2 2 2 4 4 4 4 2 2 3 3 3 2 1 2 3 2 1 2 2 2 2 2 1 1 0 0 0 1
2 2 2 1 1 1 1 1 2 2 2 2 3 3 2 2 2 2 2 2 3 2 1 2 2 2 1 1 1 1 1 1 1 2 2 1 0 0 1 1 1 1 1
2 2 2 2 1 2 2 2 2 3 3 4 3 3 3 3 4 4 2 2 2 2 1 0 0 0 1 0 0 0 1 1 1 1 1 1 1 1 1 1 1 1 2
2 2 2 2 1 2 2 2 2 2 3 4 4 4 4 5 5 5 5 5 4 4 2 1 1 2 2 2 2 1 1 2 2 1 1 1 1 2 2 1 1 2 3
2 2 2 2 2 2 2 2 2 3 3 3 4 5 5 4 5 5 5 5 4 4 2 2 2 2 2 2 2 1 1 1 1 1 2 1 1 2 2 2 2 2 3
3 3 2 2 2 2 2 2 2 2 2 2 3 3 3 3 3 3 3 2 2 2 1 2 2 2 2 2 2 2 1 1 1 1 1 2 2 2 2 2 2 3 3
2 2 2 2 2 2 1 1 2 2 2 2 2 2 2 2 1 1 1 1 1 2 1 2 2 2 2 2 2 2 2 2 2 2 2 2 2 2 2 2 2 4 3
2 3 2 2 1 1 1 1 1 1 1 1 1 1 1 0 0 0 0 0 1 2 2 2 2 2 2 2 2 2 2 2 2 3 3 3 2 2 3 3 3 3 3
2 2 2 1 1 1 1 2 2 2 2 2 2 2 1 1 1 1 1 1 2 2 2 2 2 2 2 2 3 3 3 3 3 3 3 3 2 2 2 3 3 3 3
2 1 1 2 1 1 1 1 1 2 2 2 1 2 2 1 1 1 1 1 1 1 1 2 2 2 2 2 3 3 3 3 3 3 3 3 3 3 3 3 3 3 3
1 1 1 1 1 1 1 1 1 1 1 1 1 1 1 1 1 1 1 1 1 1 1 1 2 2 2 3 3 4 4 4 4 4 3 3 3 3 3 3 4 4 4
1 1 1 1 1 1 1 1 1 1 1 1 1 1 1 1 1 1 1 1 1 1 1 2 2 3 3 3 3 4 4 5 5 4 5 4 4 3 3 3 4 4 4
1 1 1 1 1 1 1 0 0 0 1 0 1 1 1 1 1 1 1 1 1 2 2 2 2 3 4 4 4 4 5 6 5 4 4 4 4 4 4 4 4 4 4
1 1 1 1 1 1 1 1 1 0 1 1 1 1 1 1 1 2 1 1 1 2 2 2 3 4 4 4 5 5 6 6 5 5 4 3 3 3 4 4 4 4 4
Wind_Direction
225 220 215 219 217 210 211 219 215 211 208 210 206 203 196 195 189 188 200 202 195 202 206 206 227 219 211 222 217 222 234 228 250 269 271 284 269 273 289 293 286 283 278
227 216 216 215 210 214 218 221 213 210 207 204 199 196 200 197 194 195 200 205 203 208 215 215 233 232 217 215 213 220 228 226 225 254 273 279 277 259 258 275 303 310 292
220 210 217 215 210 220 225 223 215 209 208 203 196 200 206 203 200 198 200 208 208 211 214 217 229 221 224 223 216 221 225 228 216 224 254 271 284 274 267 300 305 306 303
218 212 221 229 223 222 221 219 217 208 205 206 208 210 210 203 200 199 200 213 216 218 218 220 227 226 224 220 219 220 218 215 202 207 233 256 264 266 222 240 290 298 303
226 227 234 234 230 224 217 215 215 209 208 206 206 214 208 202 201 198 202 209 214 221 225 225 227 232 237 233 228 216 206 209 207 211 225 241 249 243 234 224 248 300 301
232 237 239 225 223 226 218 205 208 215 215 210 215 216 218 223 221 222 216 208 215 218 226 233 235 237 242 248 246 236 222 215 211 213 229 229 240 237 225 215 215 259 281
234 245 236 221 222 228 218 202 211 217 216 219 223 225 231 232 229 230 228 214 217 222 221 225 237 240 240 231 248 252 244 243 236 225 220 229 230 224 215 220 224 237 256
245 255 249 231 229 228 214 215 220 223 217 219 228 230 239 242 233 232 230 217 217 223 222 218 222 234 235 228 222 237 242 249 252 245 225 229 230 225 215 218 215 221 275
256 263 257 236 229 224 222 226 225 209 221 227 230 230 231 249 242 233 221 197 213 232 232 222 220 227 242 239 217 217 237 251 260 255 258 251 240 235 208 159 180 199 274
259 259 255 237 223 228 230 232 229 209 217 210 233 239 235 246 246 232 222 194 208 230 235 235 239 239 242 236 211 202 223 242 226 243 285 284 232 218 218 200 201 203 233
269 266 258 240 231 231 223 234 220 210 194 202 234 255 249 252 253 239 231 204 205 212 226 240 247 246 244 241 227 212 226 230 197 185 200 237 225 205 220 217 213 206 216
300 287 271 256 248 243 204 242 221 191 195 220 240 265 267 261 254 247 237 228 215 209 230 243 246 256 251 244 239 226 225 220 171 168 202 248 254 242 236 216 206 220 230
316 302 299 292 269 229 204 218 222 208 214 231 229 245 262 268 266 259 250 232 222 221 221 227 251 268 269 249 245 229 204 171 171 192 229 257 262 247 230 174 146 118 308
296 302 308 296 296 280 236 222 217 218 222 228 233 240 251 257 254 253 247 241 225 223 222 232 249 268 285 253 237 226 191 188 196 212 232 249 260 225 230 227 249 282 314
291 291 292 270 254 261 251 234 232 231 223 225 232 228 227 243 247 241 223 225 209 201 180 196 257 247 248 235 205 178 171 172 220 223 214 224 235 247 251 214 226 246 255
282 284 280 273 264 258 257 286 283 259 263 254 245 236 242 247 250 239 228 229 227 201 180 192 223 226 226 219 220 232 219 218 222 215 211 222 239 248 253 251 239 233 243
254 267 269 261 252 248 247 243 275 308 299 280 266 254 250 249 238 234 229 224 219 201 194 210 224 223 222 215 217 224 240 238 220 215 226 232 240 245 243 249 247 244 248
260 263 254 244 242 241 244 243 235 246 278 304 293 275 261 248 239 234 220 200 215 202 201 210 225 227 221 218 221 228 240 235 228 231 232 234 235 237 240 247 249 245 248
264 259 241 236 238 237 242 245 242 241 255 288 322 314 292 262 241 241 196 178 203 225 226 227 235 237 235 227 225 227 226 231 233 235 238 238 236 235 242 243 249 250 249
268 261 248 228 217 217 225 237 241 242 245 251 266 281 305 19 337 284 238 209 222 242 243 241 243 242 239 235 231 228 227 232 233 237 242 242 242 241 244 242 242 246 242
265 254 247 239 220 219 227 233 233 227 229 238 248 249 207 193 214 224 225 227 231 240 248 248 245 246 244 239 233 230 229 236 236 236 239 242 242 245 243 242 246 248 248
243 239 237 234 230 221 228 234 234 226 227 235 255 253 235 212 212 227 238 245 248 250 247 248 247 254 246 241 239 237 237 241 239 236 236 235 235 237 235 235 239 242 241
240 235 241 247 228 213 226 242 244 246 242 238 227 211 208 218 225 239 249 257 256 259 240 231 241 255 258 247 239 230 235 239 239 232 232 235 235 234 231 232 231 233 236
236 226 224 232 233 211 217 243 257 266 267 234 213 214 223 238 247 250 253 260 260 258 248 240 242 248 255 257 256 251 249 248 240 231 224 228 233 235 233 232 234 235 238
230 221 208 210 209 207 199 202 237 273 285 270 252 254 258 254 255 260 266 271 259 266 268 266 261 256 257 261 266 265 260 256 252 241 226 223 228 229 228 231 234 238 239
215 205 197 199 202 200 191 205 236 261 277 287 291 281 267 260 258 265 275 279 279 279 278 284 275 271 270 268 267 266 265 259 254 249 233 218 221 228 225 229 229 233 235
Height
1472 1472 1472 1473 1473 1474 1475 1475 1476 1477 1477 1478 1478 1478 1479 1480 1481 1482 1483 1483 1484 1485 1486 1487 1488 1489 1490 1490 1491 1491 1492 1492 1491 1491 1491 1491 1491 1491 1491 1491 1491 1491 1491
1469 1469 1469 1470 1470 1470 1471 1472 1472 1473 1474 1474 1474 1475 1476 1476 1477 1478 1478 1479 1480 1480 1481 1482 1483 1484 1485 1486 1486 1487 1487 1487 1487 1486 1486 1487 1487 1487 1487 1487 1487 1487 1487
1466 1466 1466 1466 1467 1467 1467 1468 1469 1469 1470 1470 1471 1471 1472 1472 1473 1473 1474 1475 1475 1476 1477 1478 1478 1479 1479 1480 1481 1482 1482 1483 1483 1483 1482 1482 1482 1483 1482 1482 1483 1483 1483
1463 1463 1463 1463 1463 1464 1464 1465 1465 1465 1466 1466 1467 1467 1468 1468 1469 1469 1470 1471 1471 1472 1473 1473 1474 1474 1475 1476 1476 1477 1478 1478 1478 1478 1477 1477 1478 1478 1478 1478 1478 1478 1478
1459 1459 1460 1460 1460 1460 1461 1461 1462 1462 1463 1463 1463 1464 1464 1464 1465 1465 1466 1466 1467 1467 1468 1469 1469 1470 1471 1471 1472 1472 1473 1473 1473 1473 1473 1473 1473 1474 1474 1474 1474 1474 1474
1456 1456 1456 1456 1457 1457 1457 1457 1458 1458 1459 1459 1459 1459 1459 1460 1460 1461 1462 1462 1463 1463 1464 1464 1465 1466 1466 1466 1467 1468 1468 1469 1468 1469 1468 1468 1468 1469 1469 1469 1469 1469 1469
1453 1453 1453 1453 1453 1453 1453 1454 1454 1454 1455 1455 1455 1455 1455 1456 1456 1457 1457 1458 1459 1459 1459 1460 1460 1461 1461 1462 1462 1463 1463 1464 1465 1465 1464 1463 1464 1464 1465 1465 1465 1464 1464
1450 1449 1449 1449 1449 1449 1449 1450 1450 1450 1450 1450 1450 1451 1451 1452 1452 1453 1453 1454 1454 1455 1455 1456 1456 1456 1457 1457 1457 1458 1458 1459 1459 1459 1460 1459 1460 1461 1461 1461 1460 1460 1460
1446 1446 1446 1445 1445 1446 1446 1446 1446 1446 1446 1446 1446 1447 1447 1447 1448 1449 1449 1449 1450 1450 1451 1451 1452 1452 1452 1453 1453 1453 1453 1454 1455 1455 1455 1455 1456 1456 1456 1456 1456 1455 1454
1442 1442 1442 1442 1442 1442 1442 1442 1442 1442 1442 1442 1443 1443 1443 1444 1444 1445 1445 1445 1446 1446 1446 1447 1447 1448 1448 1449 1449 1449 1449 1449 1450 1450 1450 1451 1451 1451 1452 1452 1452 1451 1450
1439 1438 1438 1438 1438 1438 1439 1439 1439 1438 1438 1439 1439 1440 1440 1440 1441 1441 1441 1442 1442 1442 1442 1442 1443 1444 1444 1445 1445 1445 1445 1446 1446 1446 1446 1446 1446 1447 1447 1447 1447 1447 1446
1436 1435 1435 1435 1435 1435 1435 1435 1435 1435 1435 1435 1435 1436 1436 1437 1437 1437 1438 1438 1439 1439 1439 1439 1440 1440 1441 1441 1441 1441 1441 1442 1442 1442 1442 1442 1442 1442 1442 1442 1442 1442 1442
1433 1432 1432 1432 1432 1432 1432 1432 1432 1432 1432 1432 1432 1432 1432 1433 1434 1434 1434 1434 1435 1435 1435 1436 1436 1437 1437 1437 1437 1437 1438 1438 1438 1438 1438 1438 1438 1438 1438 1438 1438 1438 1438
1430 1429 1429 1429 1429 1429 1429 1429 1429 1429 1429 1428 1428 1428 1429 1429 1430 1430 1431 1431 1431 1432 1432 1433 1433 1434 1434 1434 1434 1434 1434 1434 1435 1435 1434 1435 1434 1434 1434 1434 1434 1434 1434
1427 1426 1426 1426 1426 1426 1426 1426 1426 1426 1426 1426 1426 1426 1425 1425 1426 1428 1428 1428 1428 1429 1429 1430 1430 1430 1430 1430 1430 1431 1431 1431 1431 1431 1431 1430 1430 1430 1430 1430 1430 1430 1429
1424 1424 1423 1423 1423 1422 1422 1422 1422 1423 1423 1423 1423 1423 1423 1423 1423 1424 1425 1425 1425 1426 1426 1426 1426 1426 1426 1427 1427 1427 1428 1428 1428 1428 1427 1427 1427 1427 1426 1426 1426 1426 1425
1422 1421 1420 1420 1420 1419 1419 1419 1418 1419 1419 1419 1419 1419 1419 1420 1420 1421 1421 1422 1422 1423 1423 1423 1423 1423 1424 1424 1424 1424 1424 1424 1424 1424 1424 1424 1424 1423 1423 1422 1422 1422 1421
1419 1419 1418 1417 1417 1416 1416 1416 1416 1416 1415 1415 1416 1416 1416 1417 1417 1418 1418 1419 1419 1419 1419 1420 1420 1420 1421 1421 1421 1421 1421 1421 1421 1421 1421 1421 1420 1420 1419 1419 1418 1418 1417
1417 1416 1415 1415 1414 1414 1414 1414 1414 1414 1413 1413 1413 1414 1414 1414 1415 1415 1415 1415 1415 1416 1416 1417 1417 1417 1418 1418 1418 1418 1418 1418 1418 1418 1417 1417 1417 1416 1416 1415 1415 1414 1414
1414 1413 1413 1412 1412 1412 1411 1411 1411 1411 1411 1411 1411 1411 1412 1412 1411 1412 1412 1412 1413 1413 1414 1414 1414 1414 1415 1415 1415 1415 1415 1415 1415 1414 1414 1414 1414 1413 1412 1412 1411 1411 1411
1411 1411 1410 1410 1409 1409 1409 1409 1409 1409 1409 1409 1409 1409 1410 1410 1409 1409 1410 1410 1410 1411 1411 1411 1411 1411 1412 1412 1412 1412 1412 1412 1412 1411 1411 1411 1410 1410 1409 1409 1408 1408 1408
1408 1408 1408 1407 1407 1407 1407 1407 1407 1407 1407 1407 1407 1407 1408 1408 1407 1408 1408 1408 1408 1408 1408 1409 1409 1409 1409 1409 1409 1409 1408 1408 1408 1408 1408 1407 1407 1406 1406 1405 1405 1405 1404
1406 1406 1405 1405 1405 1405 1405 1405 1405 1405 1405 1405 1405 1405 1405 1405 1405 1405 1405 1406 1406 1406 1406 1406 1406 1406 1406 1406 1406 1405 1405 1405 1405 1405 1405 1404 1403 1403 1403 1402 1402 1401 1401
1403 1403 1403 1403 1403 1403 1403 1403 1403 1403 1403 1403 1403 1403 1403 1403 1403 1403 1403 1403 1403 1403 1403 1403 1403 1403 1403 1403 1402 1402 1402 1402 1402 1402 1401 1401 1400 1400 1399 1399 1398 1398 1398
1401 1401 1401 1401 1401 1401 1401 1401 1401 1401 1401 1401 1401 1401 1401 1401 1401 1401 1401 1401 1401 1400 1400 1400 1400 1400 1399 1399 1399 1399 1399 1399 1398 1398 1398 1397 1397 1396 1395 1395 1395 1395 1395
1399 1399 1399 1399 1400 1400 1400 1400 1400 1399 1399 1399 1399 1399 1399 1399 1399 1398 1398 1398 1398 1398 1397 1397 1397 1397 1396 1396 1396 1396 1396 1395 1395 1394 1394 1393 1393 1392 1392 1392 1392 1391 1391